Location: Ferchesar
(52.6477°N, 12.4298°E)
Time: 04:25:56
(UTC+01:00)

Vanguard 3 - Pass Details

Date: 07 December 2021
Orbit: 508 x 3260 km, 33.3° (Epoch: 21 January)

Event Time Altitude Azimuth Distance (km) Brightness Sun altitude
Rises 08:13:09 0° 270° (W) 7,168 11.5 -0.1°
Reaches altitude 10° 08:19:40 10° 259° (WSW) 5,933 11.2 0.6°
Maximum altitude 08:31:31 23° 217° (SW) 4,213 10.9 2.0°
Drops below altitude 10° 08:40:29 10° 172° (S) 4,359 11.9 3.0°
Sets 08:44:20 0° 157° (SSE) 4,928 12.7 3.4°
